^^
North Bend WA Weather Station Historical Data
 
Daily Summary for September 17, 2019 Units:  English    Metric   Both
Daily Weekly Monthly Yearly Custom
  Current: High: Low: Average:
Temperature: 55 °F 55 °F 53 °F 53.6 °F
Dew Point: 50 °F 51 °F 50 °F 50.5 °F
Humidity: 84% 91% 84% 90%
Wind Speed: 3mph 3mph 0mph 0.9mph
Wind Gust: 9mph 12mph - -
WindSE - - SE
Pressure: 29.78 in 29.83 in 29.78 in -
Precipitation: 0.11 in      
Historical Graphs
 
 
Tabular Data for September 17, 2019
Time Temperature Dew Point Pressure Wind Wind Speed Wind Gust Humidity Rainfall Rate (Hourly) solar
00:04 54 °F 51 °F 29.83 in SE 2 mph 5 mph 90% 0 in 0 W/m2
00:09 54 °F 51 °F 29.83 in Calm   5 mph 90% 0 in 0 W/m2
00:14 54 °F 51 °F 29.82 in ESE 2 mph 4 mph 91% 0 in 0 W/m2
00:19 54 °F 51 °F 29.82 in ESE 1 mph 4 mph 91% 0.01 in 0 W/m2
00:24 54 °F 51 °F 29.82 in SE 2 mph 4 mph 91% 0.01 in 0 W/m2
00:29 54 °F 51 °F 29.82 in SE 1 mph 5 mph 91% 0.01 in 0 W/m2
00:34 54 °F 51 °F 29.82 in SE 1 mph 5 mph 91% 0.01 in 0 W/m2
00:39 54 °F 51 °F 29.82 in Calm   3 mph 90% 0.03 in 0 W/m2
00:44 54 °F 51 °F 29.82 in Calm   2 mph 90% 0.03 in 0 W/m2
00:49 54 °F 51 °F 29.83 in Calm     90% 0.04 in 0 W/m2
00:54 54 °F 51 °F 29.83 in Calm   1 mph 91% 0.04 in 0 W/m2
00:59 54 °F 51 °F 29.83 in Calm   1 mph 91% 0.04 in 0 W/m2
01:04 54 °F 51 °F 29.83 in Calm   1 mph 91% 0.04 in 0 W/m2
01:09 54 °F 51 °F 29.83 in Calm   2 mph 91% 0.05 in 0 W/m2
01:14 54 °F 51 °F 29.83 in Calm   2 mph 91% 0.08 in 0 W/m2
01:19 54 °F 51 °F 29.83 in ESE 1 mph 4 mph 91% 0.1 in 0 W/m2
01:24 54 °F 51 °F 29.83 in ESE 1 mph 4 mph 91% 0.09 in 0 W/m2
01:29 54 °F 51 °F 29.83 in ESE 2 mph 5 mph 91% 0.09 in 0 W/m2
01:34 54 °F 51 °F 29.83 in ESE 2 mph 5 mph 91% 0.1 in 0 W/m2
01:39 54 °F 51 °F 29.83 in SE 2 mph 4 mph 90% 0.09 in 0 W/m2
01:44 54 °F 51 °F 29.83 in SE 1 mph 5 mph 90% 0.08 in 0 W/m2
01:49 54 °F 51 °F 29.83 in SSE 1 mph 5 mph 90% 0.08 in 0 W/m2
01:54 54 °F 51 °F 29.82 in Calm   3 mph 90% 0.07 in 0 W/m2
01:59 54 °F 51 °F 29.82 in Calm   2 mph 90% 0.07 in 0 W/m2
02:04 54 °F 51 °F 29.83 in SSE 1 mph 4 mph 91% 0.07 in 0 W/m2
02:09 53 °F 51 °F 29.82 in ESE 1 mph 4 mph 91% 0.06 in 0 W/m2
02:14 53 °F 51 °F 29.82 in SE 1 mph 4 mph 90% 0.06 in 0 W/m2
02:19 53 °F 51 °F 29.82 in ESE 1 mph 4 mph 91% 0.01 in 0 W/m2
02:24 53 °F 51 °F 29.82 in SE 1 mph 4 mph 91% 0.01 in 0 W/m2
02:29 53 °F 51 °F 29.82 in S 1 mph 5 mph 90% 0.01 in 0 W/m2
02:34 53 °F 51 °F 29.82 in Calm   5 mph 90% 0.01 in 0 W/m2
02:39 53 °F 50 °F 29.82 in Calm   2 mph 90% 0 in 0 W/m2
02:44 53 °F 50 °F 29.82 in Calm   2 mph 90% 0 in 0 W/m2
02:49 53 °F 50 °F 29.81 in Calm     90% 0 in 0 W/m2
02:54 53 °F 50 °F 29.81 in Calm     90% 0 in 0 W/m2
02:59 53 °F 50 °F 29.81 in Calm     90% 0 in 0 W/m2
03:04 53 °F 50 °F 29.81 in Calm   2 mph 90% 0 in 0 W/m2
03:09 53 °F 50 °F 29.81 in Calm   2 mph 90% 0 in 0 W/m2
03:14 53 °F 50 °F 29.81 in Calm   4 mph 90% 0 in 0 W/m2
03:19 53 °F 50 °F 29.81 in Calm   4 mph 90% 0 in 0 W/m2
03:24 53 °F 50 °F 29.8 in Calm   2 mph 90% 0 in 0 W/m2
03:29 53 °F 50 °F 29.8 in ESE 1 mph 4 mph 90% 0 in 0 W/m2
03:34 53 °F 50 °F 29.8 in ESE 1 mph 4 mph 90% 0 in 0 W/m2
03:39 53 °F 50 °F 29.8 in ESE 1 mph 4 mph 90% 0 in 0 W/m2
03:44 53 °F 50 °F 29.8 in ESE 1 mph 4 mph 90% 0 in 0 W/m2
03:49 53 °F 50 °F 29.8 in ESE 1 mph 4 mph 90% 0 in 0 W/m2
03:54 53 °F 50 °F 29.8 in SE 1 mph 4 mph 90% 0 in 0 W/m2
03:59 53 °F 50 °F 29.8 in ESE 1 mph 9 mph 90% 0 in 0 W/m2
04:04 53 °F 50 °F 29.8 in SE 1 mph 9 mph 90% 0 in 0 W/m2
04:09 53 °F 50 °F 29.79 in E 1 mph 5 mph 90% 0 in 0 W/m2
04:14 53 °F 50 °F 29.79 in E 1 mph 6 mph 90% 0 in 0 W/m2
04:19 53 °F 50 °F 29.79 in ESE 1 mph 6 mph 89% 0 in 0 W/m2
04:24 54 °F 50 °F 29.79 in SE 2 mph 6 mph 88% 0 in 0 W/m2
04:29 54 °F 50 °F 29.79 in SE 2 mph 5 mph 88% 0 in 0 W/m2
04:34 54 °F 50 °F 29.79 in ESE 3 mph 6 mph 87% 0 in 0 W/m2
04:39 54 °F 50 °F 29.78 in SE 3 mph 6 mph 86% 0 in 0 W/m2
04:44 54 °F 50 °F 29.78 in SE 3 mph 12 mph 85% 0 in 0 W/m2
04:49 55 °F 50 °F 29.78 in SE 3 mph 12 mph 85% 0 in 0 W/m2
04:54 55 °F 50 °F 29.78 in SE 3 mph 9 mph 84% 0 in 0 W/m2
North Bend WA Weather
Compliments of Weather Underground - 4 mb